User: anonymous   Login
Location: Betz
(49.1556°N, 2.9558°E)
Time: 18:12:09
(UTC+00:00)
Language:

Cosmos 389 Rocket - Orbit

View from above orbital plane
View from above orbital plane
View from above satellite
View from above satellite

Ground track
Ground track

The orbit data is extracted from the following two-line orbital elements,

1  4814U 70113B   19316.48798263  .00001208  00000-0  34455-4 0  9992
2  4814  81.1443  58.2328 0023774 302.3082  57.5854 15.34936859669142
Epoch (UTC): 12 November 2019 11:42:41
Eccentricity: 0.0023774
inclination: 81.1443°
perigee height: 445 km
apogee height: 477 km
right ascension of ascending node: 58.2328°
argument of perigee: 302.3082°
revolutions per day: 15.34936859
mean anomaly at epoch: 57.5854°
orbit number at epoch: 66914

The dashed part of the orbit path shows where the satellite is in the earth's shadow,  

DLR